Погода в Невере

Россия / Амурская область     53°58′36″N   124°08′23″E
темп.,
°C
ветер,
м/с
пор.,
м/с
влажн.,
%
обл.,
%
осадки,
мм/ч
давл.,
гПа
погр.,
м
22 апреля, чт
чт2200:00−1с2296100 0.0 100848
03:00−3сз229852 0.0 101036
06:00−2ссз2595100 0.0 1012135
09:00+1с41178100 0.1 1014585
12:00+3с6958100 0.0 1017910
15:00+4с675287 0.0 10201286
18:00+1ссз59607 0.0 10241173
21:00−3ссз51161100 0.0 1029770
23 апреля, пт
пт2300:00−3ссз41055100 0.0 1031968
03:00−4ссз41056100 0.0 1033921
06:00−4с31054100 0.0 1036924
09:00−2с4837100 0.0 10371296
12:000ссз573471 0.0 10361707
15:00+2ссз573212 0.0 10342026
18:00+2ссз46385 0.0 10331755
21:00−3зсз11590 0.0 103510
24 апреля, сб
сб2400:00−4зюз22611 0.0 103418
03:00−5з23665 0.0 103363
06:00−5з2368100 0.0 103271
09:00+2сз513410 0.0 10301751
12:00+5сз71233100 0.0 10292417
15:00+6ссз7133699 0.0 10272371
18:00+4ссз612500 0.0 10281695
21:00−1сз310670 0.0 1029444
25 апреля, вс
вс2500:00−3сз25771 0.0 1030117
03:00−3зсз22765 0.0 102928
06:00−3з22765 0.0 102836
09:00+3сз3547100 0.0 1026824
12:00+6зсз3438100 0.0 10231178
15:00+8з233394 0.0 10191472
18:00+7зюз244499 0.0 1017247
21:00+2юв1159100 0.0 101710
26 апреля, пн
пн2600:00+2вюв1160100 0.0 101510
03:00+1в2265100 0.0 101323
06:00+1всв2575100 0.1 1011130
09:00+2в3883100 0.1 1009378
12:00+2в3898100 1.2 1006349
15:00+1всв3998100 5.7 1004422
18:00+1св2499100 2.4 1004145
21:000ссз1299100 3.4 1005204